Satellite: NOAA-11 Catalog number: 19531 Epoch time: 12123.81796870 Element set: 0908 Inclination: 098.7313 deg RA of node: 209.9284 deg Eccentricity: 0.0011424 Arg of perigee: 358.0385 deg Mean anomaly: 002.0749 deg Mean motion: 14.14963341 rev/day Decay rate: -2.61e-06 rev/day^2 Epoch rev: 21809 Checksum: 300
Satellite: NOAA-12 Catalog number: 21263 Epoch time: 12123.98492768 Element set: 0408 Inclination: 098.7325 deg RA of node: 145.8572 deg Eccentricity: 0.0013606 Arg of perigee: 336.5909 deg Mean anomaly: 023.4654 deg Mean motion: 14.25491008 rev/day Decay rate: -1.4e-07 rev/day^2 Epoch rev: 09011 Checksum: 294
Satellite: MET-3/5 Catalog number: 21655 Epoch time: 12123.79611831 Element set: 398 Inclination: 082.5570 deg RA of node: 184.2520 deg Eccentricity: 0.0014597 Arg of perigee: 079.0010 deg Mean anomaly: 281.2753 deg Mean motion: 13.17036893 rev/day Decay rate: 1.73e-06 rev/day^2 Epoch rev: 99592 Checksum: 308
Satellite: MET-2/21 Catalog number: 22782 Epoch time: 12124.75696704 Element set: 407 Inclination: 082.5478 deg RA of node: 067.7618 deg Eccentricity: 0.0020906 Arg of perigee: 278.4673 deg Mean anomaly: 081.4122 deg Mean motion: 13.83682020 rev/day Decay rate: 1.40e-06 rev/day^2 Epoch rev: 94302 Checksum: 298
Satellite: OKEAN-4 Catalog number: 23317 Epoch time: 12123.91590612 Element set: 0877 Inclination: 082.5396 deg RA of node: 073.5221 deg Eccentricity: 0.0022483 Arg of perigee: 136.9738 deg Mean anomaly: 223.3238 deg Mean motion: 14.83724330 rev/day Decay rate: 9.45e-06 rev/day^2 Epoch rev: 94809 Checksum: 309
Satellite: NOAA-14 Catalog number: 23455 Epoch time: 12123.96913788 Element set: 0889 Inclination: 098.8270 deg RA of node: 208.0336 deg Eccentricity: 0.0010316 Arg of perigee: 087.6408 deg Mean anomaly: 272.5944 deg Mean motion: 14.13894733 rev/day Decay rate: 1.31e-06 rev/day^2 Epoch rev: 89440 Checksum: 325
Satellite: NOAA-15 Catalog number: 25338 Epoch time: 12123.55957976 Element set: 0247 Inclination: 098.6883 deg RA of node: 110.9054 deg Eccentricity: 0.0009765 Arg of perigee: 238.9236 deg Mean anomaly: 121.0980 deg Mean motion: 14.25062281 rev/day Decay rate: 4.04e-06 rev/day^2 Epoch rev: 72635 Checksum: 317
Satellite: RESURS Catalog number: 25394 Epoch time: 12123.94944476 Element set: 0079 Inclination: 098.3189 deg RA of node: 114.5747 deg Eccentricity: 0.0002210 Arg of perigee: 036.3623 deg Mean anomaly: 323.7708 deg Mean motion: 14.24285573 rev/day Decay rate: 9.0e-07 rev/day^2 Epoch rev: 71796 Checksum: 310
Satellite: FENGYUN1 Catalog number: 25730 Epoch time: 12123.92615675 Element set: 596 Inclination: 098.8447 deg RA of node: 083.7039 deg Eccentricity: 0.0019462 Arg of perigee: 129.1478 deg Mean anomaly: 231.1408 deg Mean motion: 14.09457858 rev/day Decay rate: 2.053e-05 rev/day^2 Epoch rev: 66823 Checksum: 325
Satellite: OKEAN-0 Catalog number: 25860 Epoch time: 12124.87059330 Element set: 617 Inclination: 097.9319 deg RA of node: 088.4321 deg Eccentricity: 0.0001849 Arg of perigee: 051.8369 deg Mean anomaly: 308.3004 deg Mean motion: 14.74174263 rev/day Decay rate: 5.70e-06 rev/day^2 Epoch rev: 68804 Checksum: 303
Satellite: NOAA-16 Catalog number: 26536 Epoch time: 12123.56855283 Element set: 0732 Inclination: 099.0992 deg RA of node: 164.9773 deg Eccentricity: 0.0010206 Arg of perigee: 208.1936 deg Mean anomaly: 151.8689 deg Mean motion: 14.12730914 rev/day Decay rate: -4.1e-07 rev/day^2 Epoch rev: 59859 Checksum: 328
Satellite: NOAA-17 Catalog number: 27453 Epoch time: 12123.71561313 Element set: 0690 Inclination: 098.3402 deg RA of node: 153.0423 deg Eccentricity: 0.0010763 Arg of perigee: 292.2490 deg Mean anomaly: 067.7545 deg Mean motion: 14.24423518 rev/day Decay rate: 1.0e-08 rev/day^2 Epoch rev: 51228 Checksum: 268
Satellite: NOAA-18 Catalog number: 28654 Epoch time: 12123.77449752 Element set: 0165 Inclination: 099.0421 deg RA of node: 081.4936 deg Eccentricity: 0.0013480 Arg of perigee: 283.8183 deg Mean anomaly: 076.1453 deg Mean motion: 14.11643073 rev/day Decay rate: 2.29e-06 rev/day^2 Epoch rev: 35815 Checksum: 306
Satellite: NOAA-19 Catalog number: 33591 Epoch time: 12123.77223179 Element set: 0357 Inclination: 098.8613 deg RA of node: 064.1300 deg Eccentricity: 0.0014304 Arg of perigee: 145.8556 deg Mean anomaly: 214.3542 deg Mean motion: 14.11328053 rev/day Decay rate: -4.7e-07 rev/day^2 Epoch rev: 16660 Checksum: 279
/EX SB KEPS @ AMSAT $ORB12124.M Orbital Elements 12124.MISC
HR AMSAT ORBITAL ELEMENTS FOR MANNED AND MISCELLANEOUS SATELLITES FROM WA5QGD FORT WORTH,TX May 3, 2012 Send SUBSCRIBE KEPS/UNSUBSCRIBE KEPS to majordomo@amsat.org only BID: ORB12124.M TO ALL RADIO AMATEURS BT
Satellite: HUBBLE Catalog number: 20580 Epoch time: 12123.15796131 Element set: 992 Inclination: 028.4688 deg RA of node: 084.7353 deg Eccentricity: 0.0003329 Arg of perigee: 282.7553 deg Mean anomaly: 077.2543 deg Mean motion: 15.02426303 rev/day Decay rate: 9.47e-06 rev/day^2 Epoch rev: 780 Checksum: 290
Satellite: ISS Catalog number: 25544 Epoch time: 12125.08603553 Element set: 489 Inclination: 051.6438 deg RA of node: 342.9169 deg Eccentricity: 0.0009550 Arg of perigee: 315.3885 deg Mean anomaly: 122.7613 deg Mean motion: 15.57669224 rev/day Decay rate: 1.1866e-04 rev/day^2 Epoch rev: 77114 Checksum: 313
Satellite: CO-58 Catalog number: 28895 Epoch time: 12124.82865642 Element set: 165 Inclination: 097.9227 deg RA of node: 353.0386 deg Eccentricity: 0.0016535 Arg of perigee: 291.6668 deg Mean anomaly: 068.2777 deg Mean motion: 14.60587180 rev/day Decay rate: 3.39e-06 rev/day^2 Epoch rev: 34718 Checksum: 355
Satellite: FALCON Catalog number: 30776 Epoch time: 12123.62104176 Element set: 0354 Inclination: 035.4349 deg RA of node: 195.0926 deg Eccentricity: 0.0002175 Arg of perigee: 302.8298 deg Mean anomaly: 057.2209 deg Mean motion: 15.07239384 rev/day Decay rate: 3.800e-05 rev/day^2 Epoch rev: 28337 Checksum: 287
Satellite: MAST Catalog number: 31126 Epoch time: 12124.90898644 Element set: 448 Inclination: 097.8763 deg RA of node: 138.5996 deg Eccentricity: 0.0092709 Arg of perigee: 248.6555 deg Mean anomaly: 110.4731 deg Mean motion: 14.54125087 rev/day Decay rate: 5.64e-06 rev/day^2 Epoch rev: 26783 Checksum: 334
Satellite: CAPE1 Catalog number: 31130 Epoch time: 12124.70099925 Element set: 459 Inclination: 097.8839 deg RA of node: 134.8117 deg Eccentricity: 0.0100115 Arg of perigee: 262.3293 deg Mean anomaly: 096.6509 deg Mean motion: 14.52892588 rev/day Decay rate: 5.59e-06 rev/day^2 Epoch rev: 26731 Checksum: 316
Satellite: COMPASS Catalog number: 32787 Epoch time: 12123.62120748 Element set: 0292 Inclination: 097.8026 deg RA of node: 185.9608 deg Eccentricity: 0.0014688 Arg of perigee: 206.1886 deg Mean anomaly: 153.8583 deg Mean motion: 14.83828541 rev/day Decay rate: 2.271e-05 rev/day^2 Epoch rev: 21705 Checksum: 318
Satellite: AAUSAT2 Catalog number: 32788 Epoch time: 12124.81410132 Element set: 283 Inclination: 097.8053 deg RA of node: 187.4846 deg Eccentricity: 0.0014251 Arg of perigee: 200.9564 deg Mean anomaly: 159.1048 deg Mean motion: 14.84139445 rev/day Decay rate: 2.191e-05 rev/day^2 Epoch rev: 21725 Checksum: 291
Satellite: DO-64 Catalog number: 32789 Epoch time: 12123.75936439 Element set: 0301 Inclination: 097.8159 deg RA of node: 188.3071 deg Eccentricity: 0.0014388 Arg of perigee: 202.7509 deg Mean anomaly: 157.3021 deg Mean motion: 14.85500964 rev/day Decay rate: 3.603e-05 rev/day^2 Epoch rev: 21713 Checksum: 310
Satellite: CO-66 Catalog number: 32791 Epoch time: 12123.66080132 Element set: 0283 Inclination: 097.8027 deg RA of node: 185.7773 deg Eccentricity: 0.0015234 Arg of perigee: 204.3836 deg Mean anomaly: 155.6667 deg Mean motion: 14.83273977 rev/day Decay rate: 1.496e-05 rev/day^2 Epoch rev: 21699 Checksum: 337
Satellite: RS-30 Catalog number: 32953 Epoch time: 12124.61897675 Element set: 747 Inclination: 082.5013 deg RA of node: 322.8610 deg Eccentricity: 0.0019667 Arg of perigee: 046.8677 deg Mean anomaly: 313.4041 deg Mean motion: 12.43022956 rev/day Decay rate: 1.0e-07 rev/day^2 Epoch rev: 17902 Checksum: 291
Satellite: TACSAT-3 Catalog number: 35001 Epoch time: 12121.72616188 Element set: 0001 Inclination: 040.4259 deg RA of node: 351.8840 deg Eccentricity: 0.0007146 Arg of perigee: 275.2650 deg Mean anomaly: 085.0693 deg Mean motion: 16.45157000 rev/day Decay rate: 1.5204951e-01 rev/day^2 Epoch rev: 16699 Checksum: 280
Satellite: PHARMSAT Catalog number: 35002 Epoch time: 12124.89088708 Element set: 887 Inclination: 040.4650 deg RA of node: 349.2312 deg Eccentricity: 0.0006128 Arg of perigee: 266.3474 deg Mean anomaly: 093.6651 deg Mean motion: 15.75865552 rev/day Decay rate: 8.0998e-04 rev/day^2 Epoch rev: 16731 Checksum: 321
Satellite: METEOR-M Catalog number: 35865 Epoch time: 12124.81608747 Element set: 378 Inclination: 098.6583 deg RA of node: 179.9643 deg Eccentricity: 0.0002457 Arg of perigee: 160.2227 deg Mean anomaly: 199.9040 deg Mean motion: 14.21861082 rev/day Decay rate: 8.0e-08 rev/day^2 Epoch rev: 13629 Checksum: 318
Satellite: RS-38 Catalog number: 35869 Epoch time: 12124.77337353 Element set: 387 Inclination: 098.6542 deg RA of node: 179.9254 deg Eccentricity: 0.0004548 Arg of perigee: 170.6375 deg Mean anomaly: 189.4886 deg Mean motion: 14.22067030 rev/day Decay rate: 3.6e-07 rev/day^2 Epoch rev: 13630 Checksum: 331
Satellite: JUGNU Catalog number: 37839 Epoch time: 12124.58066929 Element set: 141 Inclination: 019.9607 deg RA of node: 268.4937 deg Eccentricity: 0.0018855 Arg of perigee: 088.8523 deg Mean anomaly: 271.3979 deg Mean motion: 14.12048722 rev/day Decay rate: 6.19e-06 rev/day^2 Epoch rev: 2893 Checksum: 339
